[[{"header":{"parameterUnit":"m.s-1","parameterCategory":1,"la1":30.2991,"la2":30.254,"lo1":-89.0895,"lo2":-89.0444,"dy":0.0017,"dx":0.0017,"nx":28,"ny":28,"refTime":"2025-06-03T21:00:00:Z","depth":0,"parameterNumber":2,"parameterNumberName":"U-component_of_WINDS"},"data":[0,0,0,0,0,0,0,0,0,0,0,0,0,0,0,0,0,0,0,0,0,0,0,0,0,0,0,0,0,0,0,0,0,0,0,0,0,0,0,0,0,0,0,0,0,0,0,0,0,0,0,0,0,0,0,0,0,0,-5.9387,-5.9388,0,-5.947,-5.9471,-5.9472,-5.9376,-5.9373,-5.9369,-5.9366,-5.9448,-5.9453,-5.9458,0,0,0,0,0,0,0,0,0,0,0,0,0,-5.9144,-5.9149,-5.9387,-5.9388,-5.9389,-5.947,-5.9471,-5.9472,-5.9377,-5.9373,-5.9368,-5.9364,-5.9446,-5.9452,-5.9459,0,0,0,0,0,0,0,0,0,0,0,0,0,-5.924,-5.915,-5.9387,-5.9352,-5.9349,-5.947,-5.9471,-5.9472,-5.9378,-5.9373,-5.9367,-5.9362,-5.9444,-5.9452,-5.946,-5.9618,0,0,-5.9485,-5.9489,0,0,0,0,0,0,0,0,-5.9235,-5.9249,-5.9356,-5.9354,-5.9352,-5.9407,-5.9415,-5.9521,-5.9379,-5.9367,-5.9366,-5.936,-5.9438,-5.9447,-5.9474,-5.9622,-5.9625,-5.9486,-5.9491,-5.9494,-5.9497,0,0,0,0,0,0,0,-5.9228,-5.9245,-5.942,-5.9357,-5.9355,-5.9331,-5.9338,-5.9435,-5.9432,-5.9368,-5.9361,-5.9372,-5.9436,-5.9466,-5.9475,-5.9627,-5.9486,-5.9493,-5.9498,-5.9501,-5.9906,-5.9912,0,0,0,0,0,0,-5.9226,-5.924,-5.9417,-5.9422,-5.9279,-5.9339,-5.9348,-5.9395,-5.943,-5.9431,-5.9377,-5.9367,-5.9455,-5.9466,-5.9478,-5.9662,-5.9494,-5.9502,-5.9507,-5.99,-5.9907,-5.9914,0,0,0,0,0,0,-5.9221,-5.9243,-5.9414,-5.933,-5.9349,-5.9349,-5.9403,-5.9399,-5.9429,-5.9437,-5.9436,-5.9408,-5.9451,-5.9466,-5.9583,-5.9664,-5.9506,-5.9513,-5.9893,-5.9902,-5.991,-6.0035,0,0,0,0,0,0,-5.9215,-5.9242,-5.9302,-5.9332,-5.9354,-5.9519,-5.9408,-5.9405,-5.9444,-5.9433,-5.9466,-5.9466,-5.9448,-5.9572,-5.9592,-5.9672,-5.952,-5.9886,-5.9897,-5.9908,-6.0024,-6.0047,-6.0067,0,0,0,0,0,-5.9206,-5.9334,-5.9306,-5.9328,-5.943,-5.9524,-5.9537,-5.9514,-5.9451,-5.9511,-5.9516,-5.9465,-5.9653,-5.9585,-5.9606,-5.9691,-5.9881,-5.9894,-5.9907,-6.0014,-6.0042,-6.0066,0,0,0,0,0,0,-5.9313,-5.9337,-5.9306,-5.9448,-5.9485,-5.9508,-5.9583,-5.9545,-5.96,-5.9587,-5.9555,-5.9564,-5.9688,-5.9702,-5.9625,-5.9845,-5.9756,-5.9774,-5.983,-5.9857,-5.9879,-5.9871,-5.9527,0,0,0,0,0,-5.9354,-5.9429,-5.9445,-5.9568,-5.9589,-5.9584,-5.9623,-5.9603,-5.9639,-5.9654,-5.9668,-5.9705,-5.9771,-5.9816,-5.9878,-6.0027,-6.0031,-6.0096,-6.0117,-6.0135,-6.015,-6.0227,-6.0254,-5.9956,-5.9956,-5.9956,0,0,-5.9437,-5.9459,-5.9508,-5.959,-5.9617,-5.9693,-5.9597,-5.9683,-5.9739,-5.9667,-5.9777,-5.979,-5.9828,-5.9962,-6.0021,-5.9977,-6.0234,-6.0152,-6.0166,-6.0171,-6.0243,-6.0271,-6.0296,-5.9965,-5.9964,-5.9962,0,0,-5.9626,-5.9653,-5.9757,-5.9785,-5.9827,-5.9823,-5.9848,-5.9878,-5.9883,-5.9994,-5.9941,-6.0007,-6.0124,-6.0153,-6.0183,-6.0386,-6.034,-6.0408,-6.0519,-6.0594,-6.0617,-6.0638,-6.0707,-6.0732,-6.0423,-6.0423,-6.0424,0,-5.9724,-5.9839,-5.9815,-5.9904,-5.9941,-5.9881,-5.9984,-6.0014,-6.0073,-6.0099,-6.005,-6.0194,-6.0217,-6.0354,-6.0404,-6.0432,-6.0457,-6.0401,-6.0616,-6.0637,-6.0656,-6.0721,-6.0747,-6.0431,-6.043,-6.0429,-6.0429,0,-5.9955,-6.0036,-6.0115,-6.0174,-6.022,-6.0317,-6.0306,-6.0355,-6.0331,-6.0332,-6.0445,-6.0471,-6.0536,-6.0568,-6.0545,-6.0703,-6.0673,-6.0622,-6.0531,-6.0692,-6.0752,-6.0777,-6.0442,-6.0439,-6.0437,-6.0435,0,0,-6.0211,-6.0257,-6.0286,-6.0311,-6.0353,-6.0414,-6.0508,-6.0573,-6.0614,-6.0659,-6.0734,-6.0835,-6.0787,-6.0821,-6.0802,-6.0869,-6.1024,-6.0808,-6.0808,-6.0843,-6.1195,-6.1231,-6.126,-6.0996,-6.1,-6.1004,-6.119,0,-6.0398,-6.056,-6.0542,-6.0696,-6.0769,-6.0714,-6.0795,-6.0829,-6.0833,-6.0894,-6.0898,-6.0969,-6.0902,-6.0922,-6.0986,-6.0991,-6.1093,-6.0978,-6.1063,-6.1066,-6.105,-6.1292,-6.1331,-6.1505,-6.1214,-6.1218,-6.1221,0,-6.0638,-6.069,-6.0852,-6.0882,-6.0912,-6.0985,-6.1042,-6.1103,-6.114,-6.1138,-6.1177,-6.1146,-6.1238,-6.115,-6.1276,-6.1198,-6.1232,-6.124,-6.1247,-6.125,-6.115,-6.1298,-6.156,-6.1585,-6.1259,-6.1256,-6.1253,0,-6.0803,-6.0915,-6.1025,-6.105,-6.1088,-6.1141,-6.1159,-6.1191,-6.1231,-6.1282,-6.1306,-6.1368,-6.14,-6.1447,-6.1432,-6.137,-6.156,-6.1471,-6.1558,-6.1559,-6.1597,-6.1594,-6.1864,-6.1627,-6.1627,-6.1626,-6.1626,0,-6.1012,-6.1112,-6.11,-6.1167,-6.1277,-6.1256,-6.1365,-6.1377,-6.1406,-6.1474,-6.1431,-6.1496,-6.1475,-6.1538,-6.1528,-6.1631,-6.1647,-6.1646,-6.1641,-6.1648,-6.1647,-6.1666,-6.1652,-6.1633,-6.1631,-6.163,-6.1629,0,-6.1213,-6.121,-6.1326,-6.1354,-6.1363,-6.1443,-6.1465,-6.1528,-6.153,-6.1616,-6.1635,-6.1637,-6.1709,-6.17,-6.1781,-6.1774,-6.1902,-6.1885,-6.1889,-6.1883,-6.1969,-6.196,-6.2257,-6.2294,-6.2037,-6.204,-6.2042,0,-6.1344,-6.142,-6.1456,-6.1499,-6.1521,-6.159,-6.1631,-6.1613,-6.1657,-6.1705,-6.1762,-6.183,-6.1883,-6.2001,-6.2009,-6.207,-6.2051,-6.2151,-6.206,-6.2063,-6.2048,-6.2042,-6.2047,-6.2168,-6.2171,-6.2173,-6.2175,0,-6.1576,-6.1571,-6.1631,-6.1691,-6.1741,-6.1788,-6.1829,-6.1867,-6.1853,-6.1904,-6.1977,-6.2019,-6.2102,-6.2169,-6.2227,-6.2244,-6.2207,-6.2205,-6.2227,-6.2232,-6.2229,-6.2228,-6.1933,-6.2197,-6.2194,-6.2193,-6.2192,-6.2191,-6.1743,-6.1807,-6.1842,-6.191,-6.1941,-6.1981,-6.204,-6.205,-6.2111,-6.2177,-6.2163,-6.2245,-6.228,-6.2354,-6.2378,-6.2441,-6.2404,-6.2438,-6.2446,-6.2453,-6.2461,-6.2224,-6.2452,-6.2452,-6.2451,-6.245,-6.245,0,-6.1969,-6.1989,-6.2053,-6.2113,-6.2167,-6.2129,-6.2174,-6.222,-6.2293,-6.233,-6.2383,-6.2467,-6.2533,-6.2547,-6.2609,-6.2657,-6.2641,-6.2673,-6.2667,-6.2671,-6.2493,-6.2465,-6.2685,-6.2685,-6.2685,-6.2685,-6.2684,-6.2684,-6.2093,-6.2197,-6.2197,-6.2316,-6.2335,-6.2415,-6.2443,-6.248,-6.2508,-6.2604,-6.2658,-6.2668,-6.2694,-6.2759,-6.2817,-6.2819,-6.2842,-6.288,-6.2876,-6.2708,-6.2684,-6.2661,-6.2635,-6.2887,-6.2887,-6.3048,-6.3049,-6.3051]},{"header":{"parameterUnit":"m.s-1","parameterCategory":1,"la1":30.2991,"la2":30.254,"lo1":-89.0895,"lo2":-89.0444,"dy":0.0017,"dx":0.0017,"nx":28,"ny":28,"refTime":"2025-06-03T21:00:00:Z","depth":0,"parameterNumber":3,"parameterNumberName":"V-component_of_WINDS"},"data":[0,0,0,0,0,0,0,0,0,0,0,0,0,0,0,0,0,0,0,0,0,0,0,0,0,0,0,0,0,0,0,0,0,0,0,0,0,0,0,0,0,0,0,0,0,0,0,0,0,0,0,0,0,0,0,0,0,0,2.3231,2.3232,0,2.3306,2.3307,2.3308,2.3303,2.3302,2.3301,2.33,2.3375,2.3378,2.338,0,0,0,0,0,0,0,0,0,0,0,0,0,2.3082,2.3085,2.3231,2.3232,2.3233,2.3306,2.3307,2.3308,2.3304,2.3302,2.3301,2.33,2.3374,2.3377,2.3381,0,0,0,0,0,0,0,0,0,0,0,0,0,2.3151,2.3086,2.3231,2.3239,2.3241,2.3306,2.3307,2.3308,2.3304,2.3302,2.3301,2.3299,2.3372,2.3377,2.3381,2.3441,0,0,2.3395,2.3397,0,0,0,0,0,0,0,0,2.3147,2.3156,2.3237,2.3239,2.3241,2.3294,2.3282,2.3353,2.3304,2.328,2.33,2.3298,2.3349,2.3355,2.3373,2.3445,2.3448,2.3395,2.3398,2.34,2.3401,0,0,0,0,0,0,0,2.3142,2.3153,2.326,2.3238,2.3241,2.3239,2.3247,2.3295,2.3322,2.3282,2.3282,2.3291,2.3349,2.3368,2.3374,2.3449,2.3395,2.3399,2.3402,2.3404,2.3575,2.3577,0,0,0,0,0,0,2.3136,2.3149,2.3258,2.3263,2.3189,2.3243,2.3252,2.3278,2.3322,2.3327,2.3292,2.329,2.3362,2.3369,2.3377,2.3451,2.34,2.3404,2.3407,2.3573,2.3576,2.3578,0,0,0,0,0,0,2.3133,2.3145,2.3255,2.3206,2.322,2.3247,2.3277,2.3281,2.33,2.333,2.3334,2.3307,2.3361,2.3371,2.3426,2.3453,2.3406,2.341,2.3571,2.3574,2.3577,2.3598,0,0,0,0,0,0,2.3128,2.3144,2.3168,2.3207,2.3222,2.3303,2.3279,2.3283,2.3308,2.3306,2.3344,2.3349,2.336,2.3419,2.343,2.3458,2.3414,2.3569,2.3572,2.3576,2.3595,2.3601,2.3606,0,0,0,0,0,2.3123,2.317,2.3169,2.3182,2.3252,2.3305,2.3314,2.3326,2.331,2.3333,2.3353,2.3348,2.3449,2.3425,2.3437,2.3467,2.3567,2.3571,2.3575,2.3592,2.36,2.3606,0,0,0,0,0,0,2.3132,2.3175,2.3174,2.3236,2.3267,2.3304,2.3334,2.3333,2.3369,2.3366,2.3379,2.3387,2.3443,2.3461,2.3433,2.3528,2.3506,2.3513,2.3514,2.3522,2.3527,2.3521,2.3417,0,0,0,0,0,2.3142,2.3181,2.3216,2.3267,2.3283,2.3306,2.3329,2.3336,2.3368,2.3381,2.3404,2.3435,2.3474,2.3499,2.3536,2.3598,2.3606,2.3625,2.3631,2.3635,2.3641,2.3675,2.3684,2.3591,2.3591,2.3591,0,0,2.3161,2.3189,2.3213,2.327,2.3294,2.3334,2.3317,2.3359,2.3389,2.3387,2.3441,2.3459,2.3495,2.3554,2.3581,2.357,2.3668,2.3641,2.3644,2.3647,2.368,2.3689,2.3697,2.3594,2.3594,2.3593,0,0,2.3217,2.3242,2.3288,2.3313,2.3352,2.3367,2.3378,2.3416,2.3428,2.3483,2.3482,2.3518,2.3584,2.3609,2.3631,2.3698,2.3695,2.371,2.374,2.3773,2.378,2.3787,2.3811,2.3819,2.3716,2.3716,2.3716,0,2.3236,2.3297,2.3311,2.3354,2.3379,2.3381,2.3426,2.345,2.3498,2.3515,2.3503,2.3587,2.3611,2.3676,2.3693,2.371,2.3723,2.3705,2.3778,2.3785,2.3791,2.3814,2.3823,2.3717,2.3717,2.3717,2.3717,0,2.3318,2.3361,2.3392,2.344,2.3469,2.3513,2.3533,2.3561,2.3566,2.3582,2.3638,2.3667,2.371,2.3726,2.3731,2.3793,2.3785,2.3776,2.3753,2.3801,2.3823,2.3832,2.3719,2.3719,2.3718,2.3718,0,0,2.338,2.3437,2.3448,2.347,2.3513,2.3546,2.3591,2.3634,2.3657,2.3691,2.3729,2.3786,2.3778,2.3802,2.381,2.384,2.3891,2.3827,2.3828,2.3837,2.3961,2.3967,2.3977,2.389,2.3892,2.3893,2.3958,0,2.344,2.352,2.3535,2.3604,2.3644,2.3647,2.3686,2.3716,2.3733,2.3769,2.3787,2.3828,2.3814,2.3829,2.3859,2.3879,2.3916,2.3874,2.3925,2.3926,2.3915,2.3988,2.3995,2.4054,2.3966,2.3968,2.3969,0,2.352,2.3557,2.3631,2.367,2.3687,2.3722,2.3764,2.3798,2.3833,2.3843,2.3872,2.3877,2.3923,2.39,2.3964,2.3935,2.3957,2.397,2.3973,2.3977,2.395,2.3994,2.4074,2.4082,2.3982,2.3981,2.398,0,2.3558,2.3626,2.368,2.3698,2.3745,2.377,2.379,2.3824,2.3849,2.3886,2.3902,2.3943,2.3965,2.3997,2.4013,2.3994,2.4076,2.4054,2.4085,2.4085,2.4101,2.41,2.4185,2.4117,2.4116,2.4116,2.4116,0,2.3623,2.3668,2.3697,2.373,2.3781,2.3797,2.3846,2.3866,2.3897,2.3933,2.3938,2.3972,2.3991,2.4028,2.404,2.4091,2.4101,2.4111,2.4113,2.411,2.4109,2.4124,2.412,2.4119,2.4118,2.4118,2.4117,0,2.3673,2.3695,2.3753,2.3793,2.3804,2.384,2.3874,2.3905,2.3923,2.3969,2.3981,2.4008,2.4052,2.4071,2.4125,2.4133,2.4192,2.4192,2.418,2.4181,2.4211,2.4208,2.4308,2.4322,2.4245,2.4246,2.4246,0,2.3713,2.3748,2.3792,2.3817,2.3839,2.3879,2.3906,2.3923,2.3951,2.3994,2.4021,2.4065,2.4101,2.417,2.4195,2.4236,2.4236,2.4269,2.4242,2.4238,2.4236,2.4234,2.4237,2.4273,2.4274,2.4274,2.4275,0,2.3781,2.379,2.3828,2.3871,2.3903,2.3937,2.3971,2.3991,2.4014,2.4044,2.409,2.4118,2.4173,2.4217,2.426,2.4281,2.4282,2.4283,2.4293,2.4289,2.4281,2.4285,2.4192,2.428,2.428,2.428,2.4279,2.4279,2.3827,2.3858,2.3894,2.3937,2.3965,2.3996,2.4028,2.4051,2.4089,2.4136,2.4144,2.4192,2.4227,2.4285,2.4308,2.4345,2.4337,2.4351,2.4355,2.4357,2.4359,2.4276,2.4353,2.4353,2.4353,2.4353,2.4353,0,2.3895,2.3919,2.3958,2.4005,2.4039,2.4039,2.4076,2.4104,2.4147,2.418,2.4216,2.4268,2.4311,2.4339,2.4382,2.4407,2.4409,2.4418,2.4416,2.442,2.4364,2.4351,2.4416,2.4416,2.4416,2.4416,2.4416,2.4416,2.3934,2.3987,2.4001,2.4068,2.4091,2.4139,2.4161,2.419,2.4216,2.4275,2.4311,2.4329,2.4361,2.4406,2.4445,2.4453,2.4468,2.4478,2.4484,2.4431,2.4424,2.4418,2.4406,2.4481,2.4481,2.4538,2.4538,2.4538]}]]